Showing default

MALLIGYONG-1, 58400

Orbit data source: Space-Track

MALLIGYONG-1, 58400 is a payload satellite owned by Choson (KP) in SSO that was launched on Tue, 21 Nov 2023 UTC via a CHEONLIMA-1 launch vehicle from the Yunsong, Dprk (YUN). Payload-class satellites include a variety of spacecraft equipped with specific instruments for various scientific and technological missions. These include communications satellites like Starlink; space stations such as the ISS; scientific satellites like the Hubble; Earth observation satellites from companies like Planet Labs, Umbra, and HawkEye 360; GPS; miniature CubeSats for education and research; and military/defense satellites.

Loading next visibility...
Identifier
58400, 2023-179A
Orbit
SSO
Country
Flag of UnknownUnknown / NKOR
Related business
Manufacturer
Choson
Mission
Operational Defense Imaging
Bus & Motor
TD SATELLITE, Unknown motor
Mass
~200 kg wet, ~200 kg dry
Launch date (UTC)
2023-11-21 (2 years ago)
Launch vehicle
CHEONLIMA-1
Launch site
Yunsong, Dprk (YUN)
Object type
Payload
Rocket body
Debris
Shape & HBR
Box, 0.6 m
Radar Cross Section
1.280 m², Medium (>0.1 m² and < 1m²)

Expand to show TLE details & history
Last TLE update: 5 hours ago

TLE from 5 hours ago
0 MALLIGYONG-1
1 58400U 23179A   26036.82975932  .00007311  00000-0  32521-3 0  9999
2 58400  97.3207 282.0065 0010004 123.5313 236.6881 15.21734219122771
Epoch: 2026-02-05T19:54Z
TLE epoch observation values (Epoch: 2026-02-05T19:54:51.205Z)
Latitude
0.00006°
Longitude
-152.68323°
Altitude
507.49 km
Speed
7.608 km/s
True Right ascension
18h 48m 01s
True Declination
0° 00' 00"
Sunlit
Object was in daylight at epoch
Visualization orbit readout
Latitude
Unknown
Longitude
Unknown
Altitude
Unknown
Speed
Unknown
Apparent Right ascension
Unknown
Apparent Declination
Unknown
Sunlit
N/A
Visualization observer readout
Local Sidereal Time
02:31:25
Azimuth
Unknown
Elevation
Unknown
Doppler factor
Unknown
Orbital elements
Apogee altitude
504.448 km
Perigee altitude
490.691 km
Semi-major axis
6,875.706 km
Eccentricity
0.001
Inclination
97.3207°
RAAN
282.0065°
Arg. of periapsis
123.5313°
True anomaly
236.59236°
Mean anomaly
236.6881°
Eccentric anomaly
236.64023°
Mean motion
3.80686 °/min
Orbital period
94.57 mins
BSTAR
0.00032521
Loading maneuver chart data...
Computing Atmospheric mass density...
Loading historical data...
Loading historical data...
Loading historical data...
Loading historical data...
Loading historical data...
Loading historical data...
Loading historical data...
Other satellites on launch #179 in the year 2023 (2023-11-21 UTC)

Documentation

Showing up to 5 results
|